Time,TemperatureF,DewpointF,PressureIn,WindDirection,WindDirectionDegrees,WindSpeedMPH,WindSpeedGustMPH,Humidity,HourlyPrecipIn,Conditions,Clouds,dailyrainin,SoftwareType,DateUTC
2013-10-06 00:04:00,52.7,7.7,29.79,North,0,0.0,0.0,16,0.00,CLR,OVC,0.00,WeatherDisplay:10.37,2013-10-06 05:04:00,
2013-10-06 00:09:00,52.5,7.5,29.79,North,0,0.0,0.0,16,0.00,CLR,OVC,0.00,WeatherDisplay:10.37,2013-10-06 05:09:00,
2013-10-06 00:14:00,52.2,7.2,29.79,North,0,0.0,0.0,16,0.00,CLR,OVC,0.00,WeatherDisplay:10.37,2013-10-06 05:14:00,
2013-10-06 00:19:00,51.8,6.9,29.79,North,0,0.0,0.0,16,0.00,CLR,OVC,0.00,WeatherDisplay:10.37,2013-10-06 05:19:00,
2013-10-06 00:24:00,51.6,6.8,29.79,North,0,0.0,0.0,16,0.00,CLR,OVC,0.00,WeatherDisplay:10.37,2013-10-06 05:24:00,
2013-10-06 00:29:00,51.4,10.5,29.79,North,0,0.0,0.0,19,0.00,CLR,OVC,0.00,WeatherDisplay:10.37,2013-10-06 05:29:00,
2013-10-06 00:34:00,51.1,10.2,29.79,North,0,0.0,0.0,19,0.00,CLR,OVC,0.00,WeatherDisplay:10.37,2013-10-06 05:34:00,
2013-10-06 00:39:00,50.7,9.9,29.79,North,0,0.0,0.0,19,0.00,CLR,OVC,0.00,WeatherDisplay:10.37,2013-10-06 05:39:00,
2013-10-06 00:44:00,50.5,12.0,29.79,North,0,0.0,0.0,21,0.00,CLR,OVC,0.00,WeatherDisplay:10.37,2013-10-06 05:44:00,
2013-10-06 00:49:00,50.2,11.7,29.79,North,0,0.0,0.0,21,0.00,CLR,OVC,0.00,WeatherDisplay:10.37,2013-10-06 05:49:00,
2013-10-06 00:54:00,50.0,11.5,29.79,North,0,0.0,0.0,21,0.00,CLR,OVC,0.00,WeatherDisplay:10.37,2013-10-06 05:54:00,
2013-10-06 00:59:00,49.8,14.4,29.79,North,0,0.0,0.0,24,0.00,CLR,OVC,0.00,WeatherDisplay:10.37,2013-10-06 05:59:00,
2013-10-06 01:04:00,49.5,14.1,29.79,North,0,0.0,0.0,24,0.00,CLR,OVC,0.00,WeatherDisplay:10.37,2013-10-06 06:04:00,
2013-10-06 01:09:00,49.3,15.8,29.79,North,0,0.0,0.0,26,0.00,CLR,OVC,0.00,WeatherDisplay:10.37,2013-10-06 06:09:00,
2013-10-06 01:14:00,49.1,15.6,29.79,North,0,0.0,0.0,26,0.00,CLR,OVC,0.00,WeatherDisplay:10.37,2013-10-06 06:14:00,
2013-10-06 01:19:00,48.7,16.2,29.79,North,0,0.0,0.0,27,0.00,CLR,OVC,0.00,WeatherDisplay:10.37,2013-10-06 06:19:00,
2013-10-06 01:24:00,48.7,16.2,29.79,North,0,0.0,0.0,27,0.00,CLR,OVC,0.00,WeatherDisplay:10.37,2013-10-06 06:24:00,
2013-10-06 01:29:00,48.4,15.9,29.76,North,0,0.0,0.0,27,0.00,CLR,OVC,0.00,WeatherDisplay:10.37,2013-10-06 06:29:00,
2013-10-06 01:34:00,48.2,15.7,29.76,North,0,0.0,0.0,27,0.00,CLR,OVC,0.00,WeatherDisplay:10.37,2013-10-06 06:34:00,
2013-10-06 01:39:00,48.0,16.4,29.76,North,0,0.0,0.0,28,0.00,CLR,OVC,0.00,WeatherDisplay:10.37,2013-10-06 06:39:00,
2013-10-06 01:44:00,48.0,16.4,29.76,North,0,0.0,0.0,28,0.00,CLR,OVC,0.00,WeatherDisplay:10.37,2013-10-06 06:44:00,
2013-10-06 01:49:00,47.8,17.1,29.76,North,0,0.0,0.0,29,0.00,CLR,OVC,0.00,WeatherDisplay:10.37,2013-10-06 06:49:00,
2013-10-06 01:54:00,47.7,16.9,29.76,North,0,0.0,0.0,29,0.00,CLR,OVC,0.00,WeatherDisplay:10.37,2013-10-06 06:54:00,
2013-10-06 01:59:00,47.5,16.8,29.76,North,0,0.0,0.0,29,0.00,CLR,OVC,0.00,WeatherDisplay:10.37,2013-10-06 06:59:00,
2013-10-06 02:04:00,47.3,17.4,29.76,North,0,0.0,0.0,30,0.00,CLR,OVC,0.00,WeatherDisplay:10.37,2013-10-06 07:04:00,
2013-10-06 02:09:00,47.3,17.4,29.76,North,0,0.0,0.0,30,0.00,CLR,OVC,0.00,WeatherDisplay:10.37,2013-10-06 07:09:00,
2013-10-06 02:14:00,47.1,18.0,29.76,North,0,0.0,0.0,31,0.00,CLR,OVC,0.00,WeatherDisplay:10.37,2013-10-06 07:14:00,
2013-10-06 02:19:00,46.9,17.8,29.76,North,0,0.0,0.0,31,0.00,CLR,OVC,0.00,WeatherDisplay:10.37,2013-10-06 07:19:00,
2013-10-06 02:24:00,46.9,18.6,29.76,North,0,0.0,0.0,32,0.00,CLR,OVC,0.00,WeatherDisplay:10.37,2013-10-06 07:24:00,
2013-10-06 02:29:00,46.9,19.3,29.76,North,0,0.0,0.0,33,0.00,CLR,OVC,0.00,WeatherDisplay:10.37,2013-10-06 07:29:00,
2013-10-06 02:34:00,46.8,19.1,29.76,North,0,0.0,0.0,33,0.00,CLR,OVC,0.00,WeatherDisplay:10.37,2013-10-06 07:34:00,
2013-10-06 02:39:00,46.6,19.7,29.76,North,0,0.0,0.0,34,0.00,CLR,OVC,0.00,WeatherDisplay:10.37,2013-10-06 07:39:00,
2013-10-06 02:44:00,46.4,19.5,29.76,North,0,0.0,0.0,34,0.00,CLR,OVC,0.00,WeatherDisplay:10.37,2013-10-06 07:44:00,
2013-10-06 02:49:00,46.4,20.2,29.76,North,0,0.0,0.0,35,0.00,CLR,OVC,0.00,WeatherDisplay:10.37,2013-10-06 07:49:00,
2013-10-06 02:54:00,46.4,20.9,29.76,North,0,0.0,0.0,36,0.00,CLR,OVC,0.00,WeatherDisplay:10.37,2013-10-06 07:54:00,
2013-10-06 02:59:00,46.4,20.9,29.73,North,0,0.0,0.0,36,0.00,CLR,OVC,0.00,WeatherDisplay:10.37,2013-10-06 07:59:00,
2013-10-06 03:04:00,46.4,21.5,29.73,North,0,0.0,0.0,37,0.00,CLR,OVC,0.00,WeatherDisplay:10.37,2013-10-06 08:04:00,
2013-10-06 03:09:00,46.4,21.5,29.73,North,0,0.0,0.0,37,0.00,CLR,OVC,0.00,WeatherDisplay:10.37,2013-10-06 08:09:00,
2013-10-06 03:14:00,46.4,21.5,29.73,North,0,0.0,0.0,37,0.00,CLR,OVC,0.00,WeatherDisplay:10.37,2013-10-06 08:14:00,
2013-10-06 03:19:00,46.2,21.3,29.73,North,0,0.0,0.0,37,0.00,CLR,OVC,0.00,WeatherDisplay:10.37,2013-10-06 08:19:00,
2013-10-06 03:24:00,46.2,21.3,29.73,North,0,0.0,0.0,37,0.00,CLR,OVC,0.00,WeatherDisplay:10.37,2013-10-06 08:24:00,
2013-10-06 03:29:00,46.0,21.2,29.73,North,0,0.0,0.0,37,0.00,CLR,OVC,0.00,WeatherDisplay:10.37,2013-10-06 08:29:00,
2013-10-06 03:34:00,46.0,21.2,29.73,North,0,0.0,0.0,37,0.00,CLR,OVC,0.00,WeatherDisplay:10.37,2013-10-06 08:34:00,
2013-10-06 03:39:00,46.0,21.8,29.73,North,0,0.0,0.0,38,0.00,CLR,OVC,0.00,WeatherDisplay:10.37,2013-10-06 08:39:00,
2013-10-06 03:44:00,46.0,21.8,29.73,North,0,0.0,0.0,38,0.00,CLR,OVC,0.00,WeatherDisplay:10.37,2013-10-06 08:44:00,
2013-10-06 03:49:00,45.9,21.7,29.73,North,0,0.0,0.0,38,0.00,CLR,OVC,0.00,WeatherDisplay:10.37,2013-10-06 08:49:00,
2013-10-06 03:54:00,45.9,21.7,29.73,North,0,0.0,0.0,38,0.00,CLR,OVC,0.00,WeatherDisplay:10.37,2013-10-06 08:54:00,
2013-10-06 03:59:00,45.9,21.7,29.73,North,0,0.0,0.0,38,0.00,CLR,OVC,0.00,WeatherDisplay:10.37,2013-10-06 08:59:00,
2013-10-06 04:04:00,45.9,21.7,29.73,North,0,0.0,0.0,38,0.00,CLR,OVC,0.00,WeatherDisplay:10.37,2013-10-06 09:04:00,
2013-10-06 04:09:00,45.9,21.7,29.73,North,0,0.0,0.0,38,0.00,CLR,OVC,0.00,WeatherDisplay:10.37,2013-10-06 09:09:00,
2013-10-06 04:11:00,45.9,21.7,29.73,North,0,0.0,0.0,38,0.00,CLR,OVC,0.00,WeatherDisplay:10.37,2013-10-06 09:11:00,
2013-10-06 04:16:00,46.0,21.8,29.73,North,0,0.0,0.0,38,0.00,CLR,OVC,0.00,WeatherDisplay:10.37,2013-10-06 09:16:00,
2013-10-06 04:21:00,45.9,21.7,29.73,North,0,0.0,0.0,38,0.00,CLR,OVC,0.00,WeatherDisplay:10.37,2013-10-06 09:21:00,
2013-10-06 04:26:00,45.9,21.7,29.73,North,0,0.0,0.0,38,0.00,CLR,OVC,0.00,WeatherDisplay:10.37,2013-10-06 09:26:00,
2013-10-06 04:31:00,45.9,21.7,29.73,North,0,0.0,0.0,38,0.00,CLR,OVC,0.00,WeatherDisplay:10.37,2013-10-06 09:31:00,
2013-10-06 04:36:00,45.7,21.5,29.73,North,0,0.0,0.0,38,0.00,CLR,OVC,0.00,WeatherDisplay:10.37,2013-10-06 09:36:00,
2013-10-06 04:41:00,45.7,21.5,29.73,North,0,0.0,0.0,38,0.00,CLR,OVC,0.00,WeatherDisplay:10.37,2013-10-06 09:41:00,
2013-10-06 04:46:00,45.5,21.3,29.73,North,0,0.0,0.0,38,0.00,CLR,OVC,0.00,WeatherDisplay:10.37,2013-10-06 09:46:00,
2013-10-06 04:51:00,45.5,21.3,29.73,North,0,0.0,0.0,38,0.00,CLR,OVC,0.00,WeatherDisplay:10.37,2013-10-06 09:51:00,
2013-10-06 04:56:00,45.5,21.3,29.73,North,0,0.0,0.0,38,0.00,CLR,OVC,0.00,WeatherDisplay:10.37,2013-10-06 09:56:00,
2013-10-06 05:01:00,45.5,21.3,29.73,North,0,0.0,0.0,38,0.00,CLR,OVC,0.00,WeatherDisplay:10.37,2013-10-06 10:01:00,
2013-10-06 05:06:00,45.3,21.2,29.73,North,0,0.0,0.0,38,0.00,CLR,OVC,0.00,WeatherDisplay:10.37,2013-10-06 10:06:00,
2013-10-06 05:11:00,45.3,21.2,29.73,North,0,0.0,0.0,38,0.00,CLR,OVC,0.00,WeatherDisplay:10.37,2013-10-06 10:11:00,
2013-10-06 05:16:00,45.3,21.2,29.73,North,0,0.0,0.0,38,0.00,CLR,OVC,0.00,WeatherDisplay:10.37,2013-10-06 10:16:00,
2013-10-06 05:21:00,45.3,21.2,29.73,North,0,0.0,0.0,38,0.00,CLR,OVC,0.00,WeatherDisplay:10.37,2013-10-06 10:21:00,
2013-10-06 05:26:00,45.1,21.0,29.73,North,0,0.0,0.0,38,0.00,CLR,OVC,0.00,WeatherDisplay:10.37,2013-10-06 10:26:00,
2013-10-06 05:31:00,45.1,21.0,29.73,North,0,0.0,0.0,38,0.00,CLR,OVC,0.00,WeatherDisplay:10.37,2013-10-06 10:31:00,
2013-10-06 05:36:00,45.0,20.8,29.73,North,0,0.0,0.0,38,0.00,CLR,OVC,0.00,WeatherDisplay:10.37,2013-10-06 10:36:00,
2013-10-06 05:41:00,45.0,20.8,29.73,North,0,0.0,0.0,38,0.00,CLR,OVC,0.00,WeatherDisplay:10.37,2013-10-06 10:41:00,
2013-10-06 05:46:00,44.8,20.7,29.73,North,0,0.0,0.0,38,0.00,CLR,OVC,0.00,WeatherDisplay:10.37,2013-10-06 10:46:00,
2013-10-06 05:51:00,44.8,20.7,29.73,North,0,0.0,0.0,38,0.00,CLR,OVC,0.00,WeatherDisplay:10.37,2013-10-06 10:51:00,
2013-10-06 05:56:00,44.8,20.7,29.73,North,0,0.0,0.0,38,0.00,CLR,OVC,0.00,WeatherDisplay:10.37,2013-10-06 10:56:00,
2013-10-06 06:01:00,44.6,20.5,29.73,North,0,0.0,0.0,38,0.00,CLR,OVC,0.00,WeatherDisplay:10.37,2013-10-06 11:01:00,
2013-10-06 06:06:00,44.6,20.5,29.73,North,0,0.0,0.0,38,0.00,CLR,OVC,0.00,WeatherDisplay:10.37,2013-10-06 11:06:00,
2013-10-06 06:11:00,44.2,20.2,29.73,North,0,0.0,0.0,38,0.00,CLR,OVC,0.00,WeatherDisplay:10.37,2013-10-06 11:11:00,
2013-10-06 06:16:00,44.1,20.0,29.73,North,0,0.0,0.0,38,0.00,CLR,OVC,0.00,WeatherDisplay:10.37,2013-10-06 11:16:00,
2013-10-06 06:21:00,44.1,20.0,29.73,North,0,0.0,0.0,38,0.00,CLR,OVC,0.00,WeatherDisplay:10.37,2013-10-06 11:21:00,
2013-10-06 06:26:00,43.9,20.5,29.73,North,0,0.0,0.0,39,0.00,CLR,OVC,0.00,WeatherDisplay:10.37,2013-10-06 11:26:00,
2013-10-06 06:31:00,43.7,20.3,29.70,North,0,0.0,0.0,39,0.00,CLR,OVC,0.00,WeatherDisplay:10.37,2013-10-06 11:31:00,
2013-10-06 06:36:00,43.7,20.3,29.70,North,0,0.0,0.0,39,0.00,CLR,OVC,0.00,WeatherDisplay:10.37,2013-10-06 11:36:00,
2013-10-06 06:41:00,43.5,20.2,29.70,North,0,0.0,0.0,39,0.00,CLR,OVC,0.00,WeatherDisplay:10.37,2013-10-06 11:41:00,
2013-10-06 06:46:00,43.5,20.2,29.73,North,0,0.0,0.0,39,0.00,CLR,OVC,0.00,WeatherDisplay:10.37,2013-10-06 11:46:00,
2013-10-06 06:51:00,43.5,20.2,29.73,North,0,0.0,0.0,39,0.00,CLR,OVC,0.00,WeatherDisplay:10.37,2013-10-06 11:51:00,
2013-10-06 06:56:00,43.5,20.2,29.73,North,0,0.0,0.0,39,0.00,CLR,OVC,0.00,WeatherDisplay:10.37,2013-10-06 11:56:00,
2013-10-06 07:01:00,43.3,20.0,29.73,North,0,0.0,0.0,39,0.00,CLR,OVC,0.00,WeatherDisplay:10.37,2013-10-06 12:01:00,
2013-10-06 07:06:00,43.2,19.8,29.73,North,0,0.0,0.0,39,0.00,CLR,OVC,0.00,WeatherDisplay:10.37,2013-10-06 12:06:00,
2013-10-06 07:11:00,43.0,19.7,29.73,North,0,0.0,0.0,39,0.00,CLR,OVC,0.00,WeatherDisplay:10.37,2013-10-06 12:11:00,
2013-10-06 07:16:00,43.0,19.7,29.73,North,0,0.0,0.0,39,0.00,CLR,OVC,0.00,WeatherDisplay:10.37,2013-10-06 12:16:00,
2013-10-06 07:21:00,42.8,19.5,29.73,North,0,0.0,0.0,39,0.00,CLR,OVC,0.00,WeatherDisplay:10.37,2013-10-06 12:21:00,
2013-10-06 07:26:00,42.8,19.5,29.73,North,0,0.0,0.0,39,0.00,CLR,OVC,0.00,WeatherDisplay:10.37,2013-10-06 12:26:00,
2013-10-06 07:31:00,42.8,19.5,29.70,North,0,0.0,0.0,39,0.00,CLR,OVC,0.00,WeatherDisplay:10.37,2013-10-06 12:31:00,
2013-10-06 07:36:00,42.8,19.5,29.70,North,0,0.0,0.0,39,0.00,CLR,OVC,0.00,WeatherDisplay:10.37,2013-10-06 12:36:00,
2013-10-06 07:41:00,43.0,19.7,29.70,North,0,0.0,0.0,39,0.00,CLR,OVC,0.00,WeatherDisplay:10.37,2013-10-06 12:41:00,
2013-10-06 07:46:00,43.2,19.8,29.70,North,0,0.0,0.0,39,0.00,CLR,OVC,0.00,WeatherDisplay:10.37,2013-10-06 12:46:00,
2013-10-06 07:51:00,43.5,20.2,29.70,North,0,0.0,0.0,39,0.00,CLR,OVC,0.00,WeatherDisplay:10.37,2013-10-06 12:51:00,
2013-10-06 07:56:00,43.9,20.5,29.70,North,0,0.0,0.0,39,0.00,CLR,OVC,0.00,WeatherDisplay:10.37,2013-10-06 12:56:00,
2013-10-06 08:01:00,44.2,20.8,29.70,North,0,0.0,0.0,39,0.00,CLR,OVC,0.00,WeatherDisplay:10.37,2013-10-06 13:01:00,
2013-10-06 08:06:00,44.8,21.3,29.70,North,0,0.0,0.0,39,0.00,CLR,OVC,0.00,WeatherDisplay:10.37,2013-10-06 13:06:00,
2013-10-06 08:11:00,45.1,21.6,29.70,North,0,0.0,0.0,39,0.00,CLR,OVC,0.00,WeatherDisplay:10.37,2013-10-06 13:11:00,
2013-10-06 08:16:00,45.5,21.3,29.70,North,0,0.0,0.0,38,0.00,CLR,OVC,0.00,WeatherDisplay:10.37,2013-10-06 13:16:00,
2013-10-06 08:21:00,45.9,21.7,29.70,North,0,0.0,0.0,38,0.00,CLR,OVC,0.00,WeatherDisplay:10.37,2013-10-06 13:21:00,
2013-10-06 08:26:00,46.4,21.5,29.70,North,0,0.0,0.0,37,0.00,CLR,OVC,0.00,WeatherDisplay:10.37,2013-10-06 13:26:00,
2013-10-06 08:31:00,46.9,22.0,29.70,North,0,0.0,0.0,37,0.00,CLR,OVC,0.00,WeatherDisplay:10.37,2013-10-06 13:31:00,
2013-10-06 08:36:00,47.3,21.7,29.70,North,0,0.0,0.0,36,0.00,CLR,OVC,0.00,WeatherDisplay:10.37,2013-10-06 13:36:00,
2013-10-06 08:41:00,47.7,20.6,29.70,North,0,0.0,0.0,34,0.00,CLR,OVC,0.00,WeatherDisplay:10.37,2013-10-06 13:41:00,
2013-10-06 08:46:00,47.7,19.2,29.70,North,0,0.0,0.0,32,0.00,CLR,OVC,0.00,WeatherDisplay:10.37,2013-10-06 13:46:00,
2013-10-06 08:51:00,47.8,17.9,29.70,North,0,0.0,0.0,30,0.00,CLR,OVC,0.00,WeatherDisplay:10.37,2013-10-06 13:51:00,
2013-10-06 08:56:00,47.8,17.1,29.70,North,0,0.0,0.0,29,0.00,CLR,OVC,0.00,WeatherDisplay:10.37,2013-10-06 13:56:00,
2013-10-06 09:01:00,48.0,17.2,29.70,North,0,0.0,0.0,29,0.00,CLR,OVC,0.00,WeatherDisplay:10.37,2013-10-06 14:01:00,
2013-10-06 09:06:00,48.2,16.6,29.70,North,0,0.0,0.0,28,0.00,CLR,OVC,0.00,WeatherDisplay:10.37,2013-10-06 14:06:00,
2013-10-06 09:11:00,48.4,16.7,29.70,North,0,0.0,0.0,28,0.00,CLR,OVC,0.00,WeatherDisplay:10.37,2013-10-06 14:11:00,
2013-10-06 09:16:00,48.7,16.2,29.70,North,0,0.0,0.0,27,0.00,CLR,OVC,0.00,WeatherDisplay:10.37,2013-10-06 14:16:00,
2013-10-06 09:21:00,49.1,16.5,29.70,North,0,0.0,0.0,27,0.00,CLR,OVC,0.00,WeatherDisplay:10.37,2013-10-06 14:21:00,
2013-10-06 09:26:00,49.3,16.7,29.70,North,0,0.0,0.0,27,0.00,CLR,OVC,0.00,WeatherDisplay:10.37,2013-10-06 14:26:00,
2013-10-06 09:31:00,49.5,15.9,29.70,North,0,0.0,0.0,26,0.00,CLR,OVC,0.00,WeatherDisplay:10.37,2013-10-06 14:31:00,
2013-10-06 09:36:00,49.6,16.1,29.70,North,0,0.0,0.0,26,0.00,CLR,OVC,0.00,WeatherDisplay:10.37,2013-10-06 14:36:00,
2013-10-06 09:41:00,49.8,14.4,29.70,North,0,0.0,0.0,24,0.00,CLR,OVC,0.00,WeatherDisplay:10.37,2013-10-06 14:41:00,
2013-10-06 09:46:00,49.8,11.4,29.70,North,0,0.0,0.0,21,0.00,CLR,OVC,0.00,WeatherDisplay:10.37,2013-10-06 14:46:00,
2013-10-06 09:51:00,50.0,11.5,29.70,North,0,0.0,0.0,21,0.00,CLR,OVC,0.00,WeatherDisplay:10.37,2013-10-06 14:51:00,
2013-10-06 09:56:00,50.4,11.8,29.70,North,0,0.0,0.0,21,0.00,CLR,OVC,0.00,WeatherDisplay:10.37,2013-10-06 14:56:00,
2013-10-06 10:01:00,50.4,9.6,29.70,North,0,0.0,0.0,19,0.00,CLR,OVC,0.00,WeatherDisplay:10.37,2013-10-06 15:01:00,
2013-10-06 10:06:00,50.5,9.7,29.70,North,0,0.0,0.0,19,0.00,CLR,OVC,0.00,WeatherDisplay:10.37,2013-10-06 15:06:00,
2013-10-06 10:11:00,50.7,9.9,29.70,North,0,0.0,0.0,19,0.00,CLR,OVC,0.00,WeatherDisplay:10.37,2013-10-06 15:11:00,
2013-10-06 10:16:00,51.3,10.3,29.70,North,0,0.0,0.0,19,0.00,CLR,OVC,0.00,WeatherDisplay:10.37,2013-10-06 15:16:00,
2013-10-06 10:21:00,51.4,6.7,29.70,North,0,0.0,0.0,16,0.00,CLR,OVC,0.00,WeatherDisplay:10.37,2013-10-06 15:21:00,
2013-10-06 10:26:00,52.0,7.1,29.70,North,0,0.0,0.0,16,0.00,CLR,OVC,0.00,WeatherDisplay:10.37,2013-10-06 15:26:00,
2013-10-06 10:31:00,52.3,7.4,29.70,North,0,0.0,0.0,16,0.00,CLR,OVC,0.00,WeatherDisplay:10.37,2013-10-06 15:31:00,
2013-10-06 10:36:00,52.5,7.5,29.70,North,0,0.0,0.0,16,0.00,CLR,OVC,0.00,WeatherDisplay:10.37,2013-10-06 15:36:00,
2013-10-06 10:41:00,53.2,3.6,29.70,North,0,0.0,0.0,13,0.00,CLR,OVC,0.00,WeatherDisplay:10.37,2013-10-06 15:41:00,
2013-10-06 10:46:00,54.1,4.3,29.70,North,0,0.0,0.0,13,0.00,CLR,OVC,0.00,WeatherDisplay:10.37,2013-10-06 15:46:00,
2013-10-06 10:51:00,55.0,5.0,29.70,North,0,0.0,0.0,13,0.00,CLR,OVC,0.00,WeatherDisplay:10.37,2013-10-06 15:51:00,
2013-10-06 10:56:00,54.9,4.8,29.70,North,0,0.0,0.0,13,0.00,CLR,OVC,0.00,WeatherDisplay:10.37,2013-10-06 15:56:00,
2013-10-06 11:01:00,54.9,4.8,29.70,North,0,0.0,0.0,13,0.00,BKN,OVC,0.00,WeatherDisplay:10.37,2013-10-06 16:01:00,
2013-10-06 11:06:00,55.2,5.1,29.70,North,0,0.0,0.0,13,0.00,BKN,OVC,0.00,WeatherDisplay:10.37,2013-10-06 16:06:00,
2013-10-06 11:11:00,55.2,5.1,29.70,North,0,0.0,0.0,13,0.00,BKN,OVC,0.00,WeatherDisplay:10.37,2013-10-06 16:11:00,
2013-10-06 11:16:00,55.0,5.0,29.70,North,0,0.0,0.0,13,0.00,BKN,OVC,0.00,WeatherDisplay:10.37,2013-10-06 16:16:00,
2013-10-06 11:21:00,54.3,4.4,29.70,North,0,0.0,0.0,13,0.00,BKN,OVC,0.00,WeatherDisplay:10.37,2013-10-06 16:21:00,
2013-10-06 11:26:00,53.6,3.8,29.70,North,0,0.0,0.0,13,0.00,BKN,OVC,0.00,WeatherDisplay:10.37,2013-10-06 16:26:00,
2013-10-06 11:31:00,53.2,3.6,29.70,North,0,0.0,0.0,13,0.00,BKN,OVC,0.00,WeatherDisplay:10.37,2013-10-06 16:31:00,
2013-10-06 11:36:00,53.1,3.4,29.70,North,0,0.0,0.0,13,0.00,BKN,OVC,0.00,WeatherDisplay:10.37,2013-10-06 16:36:00,
2013-10-06 11:41:00,52.7,3.1,29.70,North,0,0.0,0.0,13,0.00,BKN,OVC,0.00,WeatherDisplay:10.37,2013-10-06 16:41:00,
2013-10-06 11:46:00,52.5,3.0,29.70,North,0,0.0,0.0,13,0.00,BKN,OVC,0.00,WeatherDisplay:10.37,2013-10-06 16:46:00,
2013-10-06 11:51:00,52.7,3.1,29.70,North,0,0.0,0.0,13,0.00,BKN,OVC,0.00,WeatherDisplay:10.37,2013-10-06 16:51:00,
2013-10-06 11:56:00,53.4,3.7,29.70,North,0,0.0,0.0,13,0.00,BKN,OVC,0.00,WeatherDisplay:10.37,2013-10-06 16:56:00,
2013-10-06 12:01:00,54.7,4.7,29.70,North,0,0.0,0.0,13,0.00,BKN,OVC,0.00,WeatherDisplay:10.37,2013-10-06 17:01:00,
2013-10-06 12:06:00,56.1,4.1,29.70,North,0,0.0,0.0,12,0.00,BKN,OVC,0.00,WeatherDisplay:10.37,2013-10-06 17:06:00,
2013-10-06 12:11:00,55.9,4.0,29.70,North,0,0.0,0.0,12,0.00,BKN,OVC,0.00,WeatherDisplay:10.37,2013-10-06 17:11:00,
2013-10-06 12:16:00,55.0,5.0,29.70,North,0,0.0,0.0,13,0.00,BKN,OVC,0.00,WeatherDisplay:10.37,2013-10-06 17:16:00,
2013-10-06 12:21:00,54.1,4.3,29.70,North,0,0.0,0.0,13,0.00,BKN,OVC,0.00,WeatherDisplay:10.37,2013-10-06 17:21:00,
2013-10-06 12:26:00,53.2,3.6,29.70,North,0,0.0,0.0,13,0.00,BKN,OVC,0.00,WeatherDisplay:10.37,2013-10-06 17:26:00,
2013-10-06 12:31:00,53.1,3.4,29.70,North,0,0.0,0.0,13,0.00,BKN,OVC,0.00,WeatherDisplay:10.37,2013-10-06 17:31:00,
2013-10-06 12:36:00,53.1,3.4,29.70,North,0,0.0,0.0,13,0.00,BKN,OVC,0.00,WeatherDisplay:10.37,2013-10-06 17:36:00,
2013-10-06 12:41:00,53.1,3.4,29.70,North,0,0.0,0.0,13,0.00,BKN,OVC,0.00,WeatherDisplay:10.37,2013-10-06 17:41:00,
2013-10-06 12:46:00,52.7,3.1,29.67,North,0,0.0,0.0,13,0.00,BKN,OVC,0.00,WeatherDisplay:10.37,2013-10-06 17:46:00,
2013-10-06 12:51:00,52.3,2.8,29.67,North,0,0.0,0.0,13,0.00,BKN,OVC,0.00,WeatherDisplay:10.37,2013-10-06 17:51:00,
2013-10-06 12:56:00,52.2,2.7,29.67,North,0,0.0,0.0,13,0.00,BKN,OVC,0.00,WeatherDisplay:10.37,2013-10-06 17:56:00,
2013-10-06 13:01:00,52.0,2.6,29.67,North,0,0.0,0.0,13,0.00,OVC,,0.00,WeatherDisplay:10.37,2013-10-06 18:01:00,
2013-10-06 13:06:00,51.6,3.9,29.67,North,0,0.0,0.0,14,0.00,OVC,,0.00,WeatherDisplay:10.37,2013-10-06 18:06:00,
2013-10-06 13:11:00,51.4,3.7,29.67,North,0,0.0,0.0,14,0.00,OVC,,0.00,WeatherDisplay:10.37,2013-10-06 18:11:00,
2013-10-06 13:16:00,51.3,3.6,29.67,North,0,0.0,0.0,14,0.00,OVC,,0.00,WeatherDisplay:10.37,2013-10-06 18:16:00,
2013-10-06 13:21:00,51.3,3.6,29.67,North,0,0.0,0.0,14,0.00,OVC,,0.00,WeatherDisplay:10.37,2013-10-06 18:21:00,
2013-10-06 13:26:00,51.3,3.6,29.67,North,0,0.0,0.0,14,0.00,OVC,,0.00,WeatherDisplay:10.37,2013-10-06 18:26:00,
2013-10-06 13:31:00,51.4,3.7,29.67,North,0,0.0,0.0,14,0.00,OVC,,0.00,WeatherDisplay:10.37,2013-10-06 18:31:00,
2013-10-06 13:36:00,51.4,3.7,29.67,North,0,0.0,0.0,14,0.00,OVC,,0.00,WeatherDisplay:10.37,2013-10-06 18:36:00,
2013-10-06 13:41:00,51.1,3.4,29.67,North,0,0.0,0.0,14,0.00,OVC,,0.00,WeatherDisplay:10.37,2013-10-06 18:41:00,
2013-10-06 13:46:00,50.9,3.3,29.67,North,0,0.0,0.0,14,0.00,OVC,,0.00,WeatherDisplay:10.37,2013-10-06 18:46:00,
2013-10-06 13:51:00,51.1,3.4,29.67,North,0,0.0,0.0,14,0.00,OVC,,0.00,WeatherDisplay:10.37,2013-10-06 18:51:00,
2013-10-06 13:56:00,51.3,3.6,29.67,North,0,0.0,0.0,14,0.00,OVC,,0.00,WeatherDisplay:10.37,2013-10-06 18:56:00,
2013-10-06 14:01:00,51.3,3.6,29.67,North,0,0.0,0.0,14,0.00,OVC,,0.00,WeatherDisplay:10.37,2013-10-06 19:01:00,
2013-10-06 14:06:00,51.1,3.4,29.67,North,0,0.0,0.0,14,0.00,OVC,,0.00,WeatherDisplay:10.37,2013-10-06 19:06:00,
2013-10-06 14:11:00,51.1,3.4,29.67,North,0,0.0,0.0,14,0.00,OVC,,0.00,WeatherDisplay:10.37,2013-10-06 19:11:00,
2013-10-06 14:16:00,51.1,3.4,29.67,North,0,0.0,0.0,14,0.00,OVC,,0.00,WeatherDisplay:10.37,2013-10-06 19:16:00,
2013-10-06 14:21:00,51.1,3.4,29.67,North,0,0.0,0.0,14,0.00,OVC,,0.00,WeatherDisplay:10.37,2013-10-06 19:21:00,
2013-10-06 14:26:00,51.1,3.4,29.67,North,0,0.0,0.0,14,0.00,OVC,,0.00,WeatherDisplay:10.37,2013-10-06 19:26:00,
2013-10-06 14:31:00,51.4,3.7,29.65,North,0,0.0,0.0,14,0.00,OVC,,0.00,WeatherDisplay:10.37,2013-10-06 19:31:00,
2013-10-06 14:36:00,51.6,3.9,29.65,North,0,0.0,0.0,14,0.00,OVC,,0.00,WeatherDisplay:10.37,2013-10-06 19:36:00,
2013-10-06 14:41:00,51.4,3.7,29.65,North,0,0.0,0.0,14,0.00,OVC,,0.00,WeatherDisplay:10.37,2013-10-06 19:41:00,
2013-10-06 14:46:00,51.1,3.4,29.67,North,0,0.0,0.0,14,0.00,OVC,,0.00,WeatherDisplay:10.37,2013-10-06 19:46:00,
2013-10-06 14:51:00,50.7,3.2,29.67,North,0,0.0,0.0,14,0.00,OVC,,0.00,WeatherDisplay:10.37,2013-10-06 19:51:00,
2013-10-06 14:56:00,50.4,2.9,29.67,North,0,0.0,0.0,14,0.00,OVC,,0.00,WeatherDisplay:10.37,2013-10-06 19:56:00,
2013-10-06 15:02:00,50.2,2.7,29.67,North,0,0.0,0.0,14,0.00,OVC,,0.00,WeatherDisplay:10.37,2013-10-06 20:02:00,
2013-10-06 15:07:00,50.0,2.6,29.67,North,0,0.0,0.0,14,0.00,OVC,,0.00,WeatherDisplay:10.37,2013-10-06 20:07:00,
2013-10-06 15:12:00,49.8,2.4,29.67,North,0,0.0,0.0,14,0.00,OVC,,0.00,WeatherDisplay:10.37,2013-10-06 20:12:00,
2013-10-06 15:17:00,49.8,5.3,29.67,North,0,0.0,0.0,16,0.00,OVC,,0.00,WeatherDisplay:10.37,2013-10-06 20:17:00,
2013-10-06 15:22:00,49.6,5.2,29.67,North,0,0.0,0.0,16,0.00,OVC,,0.00,WeatherDisplay:10.37,2013-10-06 20:22:00,
2013-10-06 15:27:00,49.6,5.2,29.67,North,0,0.0,0.0,16,0.00,OVC,,0.00,WeatherDisplay:10.37,2013-10-06 20:27:00,
2013-10-06 15:32:00,49.5,5.0,29.67,North,0,0.0,0.0,16,0.00,OVC,,0.00,WeatherDisplay:10.37,2013-10-06 20:32:00,
2013-10-06 15:37:00,49.5,5.0,29.67,North,0,0.0,0.0,16,0.00,OVC,,0.00,WeatherDisplay:10.37,2013-10-06 20:37:00,
2013-10-06 15:42:00,49.5,5.0,29.67,North,0,0.0,0.0,16,0.00,OVC,,0.00,WeatherDisplay:10.37,2013-10-06 20:42:00,
2013-10-06 15:47:00,49.5,5.0,29.67,North,0,0.0,0.0,16,0.00,OVC,,0.00,WeatherDisplay:10.37,2013-10-06 20:47:00,
2013-10-06 15:52:00,49.3,8.7,29.67,North,0,0.0,0.0,19,0.00,OVC,,0.00,WeatherDisplay:10.37,2013-10-06 20:52:00,
2013-10-06 15:57:00,49.3,8.7,29.67,North,0,0.0,0.0,19,0.00,OVC,,0.00,WeatherDisplay:10.37,2013-10-06 20:57:00,
2013-10-06 16:02:00,49.3,8.7,29.67,North,0,0.0,0.0,19,0.00,OVC,,0.00,WeatherDisplay:10.37,2013-10-06 21:02:00,
2013-10-06 16:07:00,49.1,10.8,29.67,North,0,0.0,0.0,21,0.00,OVC,,0.00,WeatherDisplay:10.37,2013-10-06 21:07:00,
2013-10-06 16:12:00,48.9,10.6,29.67,North,0,0.0,0.0,21,0.00,OVC,,0.00,WeatherDisplay:10.37,2013-10-06 21:12:00,
2013-10-06 16:17:00,48.9,13.6,29.67,North,0,0.0,0.0,24,0.00,OVC,,0.00,WeatherDisplay:10.37,2013-10-06 21:17:00,
2013-10-06 16:22:00,48.9,15.5,29.67,North,0,0.0,0.0,26,0.00,OVC,,0.00,WeatherDisplay:10.37,2013-10-06 21:22:00,
2013-10-06 16:27:00,48.7,15.3,29.67,North,0,0.0,0.0,26,0.00,OVC,,0.00,WeatherDisplay:10.37,2013-10-06 21:27:00,
2013-10-06 16:32:00,48.7,15.3,29.70,North,0,0.0,0.0,26,0.00,OVC,,0.00,WeatherDisplay:10.37,2013-10-06 21:32:00,
2013-10-06 16:37:00,48.9,16.4,29.70,North,0,0.0,0.0,27,0.00,OVC,,0.00,WeatherDisplay:10.37,2013-10-06 21:37:00,
2013-10-06 16:42:00,48.9,16.4,29.70,North,0,0.0,0.0,27,0.00,OVC,,0.00,WeatherDisplay:10.37,2013-10-06 21:42:00,
2013-10-06 16:47:00,48.9,16.4,29.70,North,0,0.0,0.0,27,0.00,OVC,,0.00,WeatherDisplay:10.37,2013-10-06 21:47:00,
2013-10-06 16:52:00,48.9,16.4,29.70,North,0,0.0,0.0,27,0.00,OVC,,0.00,WeatherDisplay:10.37,2013-10-06 21:52:00,
2013-10-06 16:57:00,48.7,16.2,29.70,North,0,0.0,0.0,27,0.00,OVC,,0.00,WeatherDisplay:10.37,2013-10-06 21:57:00,
2013-10-06 17:02:00,48.7,16.2,29.70,North,0,0.0,0.0,27,0.00,OVC,,0.00,WeatherDisplay:10.37,2013-10-06 22:02:00,
2013-10-06 17:07:00,48.6,16.0,29.70,North,0,0.0,0.0,27,0.00,OVC,,0.00,WeatherDisplay:10.37,2013-10-06 22:07:00,
2013-10-06 17:12:00,48.4,16.7,29.70,North,0,0.0,0.0,28,0.00,OVC,,0.00,WeatherDisplay:10.37,2013-10-06 22:12:00,
2013-10-06 17:17:00,48.0,16.4,29.70,North,0,0.0,0.0,28,0.00,OVC,,0.00,WeatherDisplay:10.37,2013-10-06 22:17:00,
2013-10-06 17:22:00,47.8,17.1,29.70,North,0,0.0,0.0,29,0.00,OVC,,0.00,WeatherDisplay:10.37,2013-10-06 22:22:00,
2013-10-06 17:27:00,47.7,17.7,29.70,North,0,0.0,0.0,30,0.00,OVC,,0.00,WeatherDisplay:10.37,2013-10-06 22:27:00,
2013-10-06 17:32:00,47.7,17.7,29.70,North,0,0.0,0.0,30,0.00,OVC,,0.00,WeatherDisplay:10.37,2013-10-06 22:32:00,
2013-10-06 17:37:00,47.5,18.3,29.70,North,0,0.0,0.0,31,0.00,OVC,,0.00,WeatherDisplay:10.37,2013-10-06 22:37:00,
2013-10-06 17:42:00,47.3,18.9,29.70,North,0,0.0,0.0,32,0.00,OVC,,0.00,WeatherDisplay:10.37,2013-10-06 22:42:00,
2013-10-06 17:47:00,47.3,19.6,29.70,North,0,0.0,0.0,33,0.00,OVC,,0.00,WeatherDisplay:10.37,2013-10-06 22:47:00,
2013-10-06 17:52:00,47.1,20.2,29.70,North,0,0.0,0.0,34,0.00,OVC,,0.00,WeatherDisplay:10.37,2013-10-06 22:52:00,
2013-10-06 17:57:00,47.1,21.5,29.70,North,0,0.0,0.0,36,0.00,OVC,,0.00,WeatherDisplay:10.37,2013-10-06 22:57:00,
2013-10-06 18:02:00,47.1,22.1,29.70,North,0,0.0,0.0,37,0.00,OVC,,0.00,WeatherDisplay:10.37,2013-10-06 23:02:00,
2013-10-06 18:07:00,47.1,22.1,29.70,North,0,0.0,0.0,37,0.00,OVC,,0.00,WeatherDisplay:10.37,2013-10-06 23:07:00,
2013-10-06 18:12:00,47.1,22.1,29.70,North,0,0.0,0.0,37,0.00,OVC,,0.00,WeatherDisplay:10.37,2013-10-06 23:12:00,
2013-10-06 18:17:00,46.9,22.0,29.70,North,0,0.0,0.0,37,0.00,OVC,,0.00,WeatherDisplay:10.37,2013-10-06 23:17:00,
2013-10-06 18:22:00,46.9,22.0,29.70,North,0,0.0,0.0,37,0.00,OVC,,0.00,WeatherDisplay:10.37,2013-10-06 23:22:00,
2013-10-06 18:27:00,46.9,22.6,29.70,North,0,0.0,0.0,38,0.00,OVC,,0.00,WeatherDisplay:10.37,2013-10-06 23:27:00,
2013-10-06 18:32:00,46.9,22.6,29.70,North,0,0.0,0.0,38,0.00,OVC,,0.00,WeatherDisplay:10.37,2013-10-06 23:32:00,
2013-10-06 18:37:00,46.8,22.5,29.70,North,0,0.0,0.0,38,0.00,OVC,,0.00,WeatherDisplay:10.37,2013-10-06 23:37:00,
2013-10-06 18:42:00,46.8,22.5,29.70,North,0,0.0,0.0,38,0.00,OVC,,0.00,WeatherDisplay:10.37,2013-10-06 23:42:00,
2013-10-06 18:47:00,46.6,22.3,29.70,North,0,0.0,0.0,38,0.00,OVC,,0.00,WeatherDisplay:10.37,2013-10-06 23:47:00,
2013-10-06 18:52:00,46.6,22.3,29.70,North,0,0.0,0.0,38,0.00,OVC,,0.00,WeatherDisplay:10.37,2013-10-06 23:52:00,
2013-10-06 18:57:00,46.6,22.3,29.70,North,0,0.0,0.0,38,0.00,OVC,,0.00,WeatherDisplay:10.37,2013-10-06 23:57:00,
2013-10-06 19:02:00,46.4,22.8,29.70,North,0,0.0,0.0,39,0.00,BKN,OVC,0.00,WeatherDisplay:10.37,2013-10-07 00:02:00,
2013-10-06 19:07:00,46.4,22.8,29.70,North,0,0.0,0.0,39,0.00,BKN,OVC,0.00,WeatherDisplay:10.37,2013-10-07 00:07:00,
2013-10-06 19:12:00,46.4,22.8,29.70,North,0,0.0,0.0,39,0.00,BKN,OVC,0.00,WeatherDisplay:10.37,2013-10-07 00:12:00,
2013-10-06 19:17:00,46.2,22.6,29.70,North,0,0.0,0.0,39,0.00,BKN,OVC,0.00,WeatherDisplay:10.37,2013-10-07 00:17:00,
2013-10-06 19:22:00,46.0,23.0,29.70,North,0,0.0,0.0,40,0.00,BKN,OVC,0.00,WeatherDisplay:10.37,2013-10-07 00:22:00,
2013-10-06 19:27:00,46.0,23.0,29.70,North,0,0.0,0.0,40,0.00,BKN,OVC,0.00,WeatherDisplay:10.37,2013-10-07 00:27:00,
2013-10-06 19:32:00,46.0,23.0,29.73,North,0,0.0,0.0,40,0.00,BKN,OVC,0.00,WeatherDisplay:10.37,2013-10-07 00:32:00,
2013-10-06 19:37:00,46.0,23.0,29.73,North,0,0.0,0.0,40,0.00,BKN,OVC,0.00,WeatherDisplay:10.37,2013-10-07 00:37:00,
2013-10-06 19:42:00,46.0,23.0,29.73,North,0,0.0,0.0,40,0.00,BKN,OVC,0.00,WeatherDisplay:10.37,2013-10-07 00:42:00,
2013-10-06 19:47:00,46.0,23.6,29.73,North,0,0.0,0.0,41,0.00,BKN,OVC,0.00,WeatherDisplay:10.37,2013-10-07 00:47:00,
2013-10-06 19:52:00,46.0,23.6,29.73,North,0,0.0,0.0,41,0.00,BKN,OVC,0.00,WeatherDisplay:10.37,2013-10-07 00:52:00,
2013-10-06 19:57:00,46.0,23.6,29.73,North,0,0.0,0.0,41,0.00,BKN,OVC,0.00,WeatherDisplay:10.37,2013-10-07 00:57:00,
2013-10-06 20:02:00,46.0,23.6,29.73,North,0,0.0,0.0,41,0.00,OVC,,0.00,WeatherDisplay:10.37,2013-10-07 01:02:00,
2013-10-06 20:07:00,46.0,24.2,29.73,North,0,0.0,0.0,42,0.00,OVC,,0.00,WeatherDisplay:10.37,2013-10-07 01:07:00,
2013-10-06 20:12:00,46.0,24.2,29.73,North,0,0.0,0.0,42,0.00,OVC,,0.00,WeatherDisplay:10.37,2013-10-07 01:12:00,
2013-10-06 20:17:00,46.0,24.2,29.73,North,0,0.0,0.0,42,0.00,OVC,,0.00,WeatherDisplay:10.37,2013-10-07 01:17:00,
2013-10-06 20:22:00,46.0,24.2,29.73,North,0,0.0,0.0,42,0.00,OVC,,0.00,WeatherDisplay:10.37,2013-10-07 01:22:00,
2013-10-06 20:27:00,46.0,24.2,29.73,North,0,0.0,0.0,42,0.00,OVC,,0.00,WeatherDisplay:10.37,2013-10-07 01:27:00,
2013-10-06 20:32:00,46.0,24.8,29.73,North,0,0.0,0.0,43,0.00,OVC,,0.00,WeatherDisplay:10.37,2013-10-07 01:32:00,
2013-10-06 20:37:00,46.0,24.8,29.73,North,0,0.0,0.0,43,0.00,OVC,,0.00,WeatherDisplay:10.37,2013-10-07 01:37:00,
2013-10-06 20:42:00,46.0,24.8,29.73,North,0,0.0,0.0,43,0.00,OVC,,0.00,WeatherDisplay:10.37,2013-10-07 01:42:00,
2013-10-06 20:47:00,46.2,24.9,29.73,North,0,0.0,0.0,43,0.00,OVC,,0.00,WeatherDisplay:10.37,2013-10-07 01:47:00,
2013-10-06 20:52:00,46.2,25.5,29.73,North,0,0.0,0.0,44,0.00,OVC,,0.00,WeatherDisplay:10.37,2013-10-07 01:52:00,
2013-10-06 20:57:00,46.2,25.5,29.73,North,0,0.0,0.0,44,0.00,OVC,,0.00,WeatherDisplay:10.37,2013-10-07 01:57:00,
2013-10-06 21:02:00,46.4,25.1,29.73,North,0,0.0,0.0,43,0.00,OVC,,0.00,WeatherDisplay:10.37,2013-10-07 02:02:00,
2013-10-06 21:07:00,46.4,25.1,29.73,North,0,0.0,0.0,43,0.00,OVC,,0.00,WeatherDisplay:10.37,2013-10-07 02:07:00,
2013-10-06 21:12:00,46.4,25.1,29.73,North,0,0.0,0.0,43,0.00,OVC,,0.00,WeatherDisplay:10.37,2013-10-07 02:12:00,
2013-10-06 21:17:00,46.4,25.1,29.73,North,0,0.0,0.0,43,0.00,OVC,,0.00,WeatherDisplay:10.37,2013-10-07 02:17:00,
2013-10-06 21:22:00,46.4,25.1,29.73,North,0,0.0,0.0,43,0.00,OVC,,0.00,WeatherDisplay:10.37,2013-10-07 02:22:00,
2013-10-06 21:27:00,46.4,25.1,29.73,North,0,0.0,0.0,43,0.00,OVC,,0.00,WeatherDisplay:10.37,2013-10-07 02:27:00,
2013-10-06 21:32:00,46.4,25.1,29.73,North,0,0.0,0.0,43,0.00,OVC,,0.00,WeatherDisplay:10.37,2013-10-07 02:32:00,
2013-10-06 21:37:00,46.4,25.6,29.73,North,0,0.0,0.0,44,0.00,OVC,,0.00,WeatherDisplay:10.37,2013-10-07 02:37:00,
2013-10-06 21:42:00,46.4,25.6,29.73,North,0,0.0,0.0,44,0.00,OVC,,0.00,WeatherDisplay:10.37,2013-10-07 02:42:00,
2013-10-06 21:48:00,46.4,25.6,29.73,North,0,0.0,0.0,44,0.00,OVC,,0.00,WeatherDisplay:10.37,2013-10-07 02:48:00,
2013-10-06 21:53:00,46.4,25.6,29.73,North,0,0.0,0.0,44,0.00,OVC,,0.00,WeatherDisplay:10.37,2013-10-07 02:53:00,
2013-10-06 21:58:00,46.6,25.8,29.73,North,0,0.0,0.0,44,0.00,OVC,,0.00,WeatherDisplay:10.37,2013-10-07 02:58:00,
2013-10-06 22:03:00,46.6,25.8,29.73,North,0,0.0,0.0,44,0.00,OVC,,0.00,WeatherDisplay:10.37,2013-10-07 03:03:00,
2013-10-06 22:08:00,46.6,25.8,29.73,North,0,0.0,0.0,44,0.00,OVC,,0.00,WeatherDisplay:10.37,2013-10-07 03:08:00,
2013-10-06 22:13:00,46.8,26.0,29.73,North,0,0.0,0.0,44,0.00,OVC,,0.00,WeatherDisplay:10.37,2013-10-07 03:13:00,
2013-10-06 22:18:00,46.8,26.0,29.73,North,0,0.0,0.0,44,0.00,OVC,,0.00,WeatherDisplay:10.37,2013-10-07 03:18:00,
2013-10-06 22:23:00,46.9,26.7,29.73,North,0,0.0,0.0,45,0.00,OVC,,0.00,WeatherDisplay:10.37,2013-10-07 03:23:00,
2013-10-06 22:28:00,46.9,26.7,29.73,North,0,0.0,0.0,45,0.00,OVC,,0.00,WeatherDisplay:10.37,2013-10-07 03:28:00,
2013-10-06 22:33:00,46.9,26.7,29.73,North,0,0.0,0.0,45,0.00,OVC,,0.00,WeatherDisplay:10.37,2013-10-07 03:33:00,
2013-10-06 22:38:00,47.1,26.8,29.73,North,0,0.0,0.0,45,0.00,OVC,,0.00,WeatherDisplay:10.37,2013-10-07 03:38:00,
2013-10-06 22:43:00,47.1,26.8,29.73,North,0,0.0,0.0,45,0.00,OVC,,0.00,WeatherDisplay:10.37,2013-10-07 03:43:00,
2013-10-06 22:48:00,47.3,27.0,29.73,North,0,0.0,0.0,45,0.00,OVC,,0.00,WeatherDisplay:10.37,2013-10-07 03:48:00,
2013-10-06 22:53:00,47.3,27.0,29.73,North,0,0.0,0.0,45,0.00,OVC,,0.00,WeatherDisplay:10.37,2013-10-07 03:53:00,
2013-10-06 22:58:00,47.3,27.0,29.73,North,0,0.0,0.0,45,0.00,OVC,,0.00,WeatherDisplay:10.37,2013-10-07 03:58:00,
2013-10-06 23:01:00,47.3,27.0,29.73,North,0,0.0,0.0,45,0.00,OVC,,0.00,WeatherDisplay:10.37,2013-10-07 04:01:00,
2013-10-06 23:02:00,47.3,27.0,29.73,North,0,0.0,0.0,45,0.00,OVC,,0.00,WeatherDisplay:10.37,2013-10-07 04:02:00,
2013-10-06 23:03:00,47.3,27.0,29.73,North,0,0.0,0.0,45,0.00,OVC,,0.00,WeatherDisplay:10.37,2013-10-07 04:03:00,
2013-10-06 23:08:00,47.5,26.6,29.73,North,0,0.0,0.0,44,0.00,OVC,,0.00,WeatherDisplay:10.37,2013-10-07 04:08:00,
2013-10-06 23:13:00,47.5,26.6,29.73,North,0,0.0,0.0,44,0.00,OVC,,0.00,WeatherDisplay:10.37,2013-10-07 04:13:00,
2013-10-06 23:18:00,47.5,26.6,29.73,North,0,0.0,0.0,44,0.00,OVC,,0.00,WeatherDisplay:10.37,2013-10-07 04:18:00,
2013-10-06 23:23:00,47.3,26.5,29.73,North,0,0.0,0.0,44,0.00,OVC,,0.00,WeatherDisplay:10.37,2013-10-07 04:23:00,
2013-10-06 23:28:00,47.3,26.5,29.73,North,0,0.0,0.0,44,0.00,OVC,,0.00,WeatherDisplay:10.37,2013-10-07 04:28:00,
2013-10-06 23:33:00,47.3,25.9,29.76,North,0,0.0,0.0,43,0.00,OVC,,0.00,WeatherDisplay:10.37,2013-10-07 04:33:00,
2013-10-06 23:38:00,47.3,25.9,29.76,North,0,0.0,0.0,43,0.00,OVC,,0.00,WeatherDisplay:10.37,2013-10-07 04:38:00,
2013-10-06 23:43:00,47.1,25.7,29.76,North,0,0.0,0.0,43,0.00,OVC,,0.00,WeatherDisplay:10.37,2013-10-07 04:43:00,
2013-10-06 23:48:00,46.9,25.6,29.76,North,0,0.0,0.0,43,0.00,OVC,,0.00,WeatherDisplay:10.37,2013-10-07 04:48:00,
2013-10-06 23:53:00,46.9,25.6,29.76,North,0,0.0,0.0,43,0.00,OVC,,0.00,WeatherDisplay:10.37,2013-10-07 04:53:00,
2013-10-06 23:58:00,46.8,25.4,29.76,North,0,0.0,0.0,43,0.00,OVC,,0.00,WeatherDisplay:10.37,2013-10-07 04:58:00,